カタログに戻る

SL-8 R/B

運用中PO
NORAD 7009·ROCKET BODY·🇷🇺 Russia

打ち上げ Dec 29, 1973 から Plesetsk Cosmodrome

Loading…

次のパス (今後24時間)

TLE

最新Source: Space-Track

元期: Sep 14, 2026, 02:15 UTC

1 07009U 73109B   26257.09399042  .00000039  00000-0  23841-4 0  9998
2 07009  82.9507 316.4638 0020359 147.3575 232.6379 13.77055102647630

AllMySatでSL-8 R/Bをリアルタイム追跡

Download on the App Store